Location: Elbląg
(54.1581°N, 19.4014°E)
Time: 22:42:05
(UTC+01:00)

ISS - Visible Passes

Search period start: 23 January 2019 00:00
Search period end: 02 February 2019 00:00
Orbit: 404 x 410 km, 51.6° (Epoch: 24 January)

Date Brightness Start Highest point End Pass type
(mag) Time Alt. Az. Time Alt. Az. Time Alt. Az.
23 Jan -1.0 18:40:56 10° S 18:41:05 11° S 18:41:05 11° S visible
24 Jan -1.4 17:50:48 10° SSE 17:52:04 12° SE 17:52:04 12° SE visible
25 Jan -2.0 18:33:50 10° SW 18:35:41 23° S 18:35:41 23° S visible
26 Jan -2.0 17:43:00 10° SSW 17:45:28 20° SSE 17:46:30 17° SE visible
26 Jan -1.0 19:18:21 10° WSW 19:19:14 17° WSW 19:19:14 17° WSW visible
27 Jan -1.5 16:52:30 10° S 16:54:19 14° SE 16:56:08 10° ESE visible
27 Jan -2.9 18:27:08 10° SW 18:30:00 38° S 18:30:00 38° S visible
28 Jan -2.6 17:36:00 10° SW 17:38:57 30° SSE 17:40:43 18° ESE visible
28 Jan -1.5 19:11:56 10° WSW 19:13:26 24° WSW 19:13:26 24° WSW visible
29 Jan -3.4 18:20:36 10° WSW 18:23:49 50° S 18:24:07 48° SSE visible
30 Jan -3.0 17:29:18 10° WSW 17:32:28 43° SSE 17:34:47 16° E visible
30 Jan -2.0 19:05:31 10° W 19:07:30 31° WSW 19:07:30 31° WSW visible
31 Jan -3.4 18:14:08 10° WSW 18:17:23 56° S 18:18:09 42° SE visible
31 Jan -0.4 19:50:35 10° W 19:50:52 12° W 19:50:52 12° W visible
01 Feb -3.3 17:22:45 10° WSW 17:25:58 53° S 17:28:49 13° E visible
01 Feb -2.4 18:59:06 10° W 19:01:32 36° SW 19:01:32 36° SW visible
